• In Uzbekistan
  • List of Countries
  • For 7 days
  • Water Temperature
  • Satellite Maps
  • Weather Map
  • Weather Widgets
  • user-avatar
    Login

    Hourly Weather Kensington

    Today, 12 December, Wednesday

    Time Temperature Precipitation Wind Pressure Humidity
    00:00 -10°C° 0 mm 4 mps 758 mmHg 69%
    01:00 -10°C° 0 mm 4 mps 758 mmHg 70%
    02:00 -9°C° 0 mm 3 mps 757 mmHg 72%
    03:00 -9°C° 0 mm 3 mps 756 mmHg 74%
    04:00 -10°C° 0 mm 4 mps 756 mmHg 76%
    05:00 -10°C° 0 mm 4 mps 756 mmHg 77%
    06:00 -9°C° 0 mm 4 mps 756 mmHg 76%
    07:00 -9°C° 0 mm 4 mps 755 mmHg 74%
    08:00 -10°C° 0 mm 5 mps 755 mmHg 73%
    09:00 -8°C° 0.1 mm 5 mps 755 mmHg 73%
    10:00 -8°C° 0.1 mm 6 mps 755 mmHg 72%
    11:00 -8°C° 0.1 mm 6 mps 754 mmHg 71%
    12:00 -8°C° 0.3 mm 7 mps 754 mmHg 74%
    13:00 -8°C° 0.3 mm 8 mps 754 mmHg 77%
    14:00 -8°C° 0.3 mm 9 mps 754 mmHg 80%
    15:00 -9°C° 0.2 mm 10 mps 755 mmHg 78%
    16:00 -9°C° 0.2 mm 11 mps 755 mmHg 76%
    17:00 -10°C° 0.2 mm 12 mps 756 mmHg 75%
    18:00 -11°C° 0.1 mm 12 mps 756 mmHg 75%
    19:00 -11°C° 0.1 mm 12 mps 757 mmHg 75%
    20:00 -11°C° 0.1 mm 11 mps 758 mmHg 75%
    21:00 -11°C° 0.1 mm 11 mps 759 mmHg 74%
    22:00 -11°C° 0.1 mm 11 mps 760 mmHg 74%
    23:00 -11°C° 0.1 mm 11 mps 760 mmHg 73%

    Tomorrow, 13 December, Thursday

    Time Temperature Precipitation Wind Pressure Humidity
    00:00 -11°C° 0.1 mm 11 mps 761 mmHg 73%
    01:00 -12°C° 0.1 mm 10 mps 762 mmHg 74%
    02:00 -12°C° 0.1 mm 10 mps 763 mmHg 74%
    03:00 -12°C° 0.1 mm 10 mps 763 mmHg 73%
    04:00 -11°C° 0.1 mm 9 mps 764 mmHg 73%
    05:00 -11°C° 0.1 mm 9 mps 765 mmHg 72%
    06:00 -11°C° 0 mm 8 mps 765 mmHg 72%
    07:00 -11°C° 0 mm 8 mps 766 mmHg 71%
    08:00 -11°C° 0 mm 8 mps 767 mmHg 70%
    09:00 -11°C° 0 mm 7 mps 767 mmHg 71%
    10:00 -11°C° 0 mm 7 mps 768 mmHg 72%
    11:00 -11°C° 0 mm 7 mps 768 mmHg 72%
    12:00 -11°C° 0 mm 7 mps 768 mmHg 71%
    13:00 -10°C° 0 mm 6 mps 768 mmHg 70%
    14:00 -10°C° 0 mm 6 mps 769 mmHg 69%
    15:00 -10°C° 0 mm 6 mps 769 mmHg 68%
    16:00 -10°C° 0 mm 6 mps 769 mmHg 67%
    17:00 -10°C° 0 mm 5 mps 769 mmHg 66%
    18:00 -9°C° 0 mm 6 mps 770 mmHg 66%
    19:00 -9°C° 0 mm 6 mps 770 mmHg 67%
    20:00 -9°C° 0 mm 6 mps 770 mmHg 68%
    21:00 -9°C° 0 mm 7 mps 770 mmHg 67%
    22:00 -9°C° 0 mm 7 mps 770 mmHg 66%
    23:00 -9°C° 0 mm 7 mps 770 mmHg 66%

    Day after tomorrow, 14 December, Friday

    Time Temperature Precipitation Wind Pressure Humidity
    00:00 -9°C° 0 mm 7 mps 770 mmHg 65%
    01:00 -9°C° 0 mm 7 mps 770 mmHg 64%
    02:00 -9°C° 0 mm 7 mps 770 mmHg 63%
    03:00 -10°C° 0 mm 8 mps 770 mmHg 64%
    04:00 -10°C° 0 mm 8 mps 770 mmHg 64%
    05:00 -10°C° 0 mm 8 mps 769 mmHg 65%
    06:00 -10°C° 0 mm 8 mps 769 mmHg 66%
    07:00 -10°C° 0 mm 8 mps 770 mmHg 67%
    08:00 -10°C° 0 mm 8 mps 770 mmHg 68%
    09:00 -8°C° 0 mm 8 mps 770 mmHg 71%
    10:00 -7°C° 0 mm 8 mps 769 mmHg 74%
    11:00 -6°C° 0 mm 8 mps 769 mmHg 77%
    12:00 -5°C° 0 mm 8 mps 769 mmHg 77%
    13:00 -4°C° 0 mm 8 mps 768 mmHg 77%
    14:00 -2°C° 0 mm 8 mps 767 mmHg 78%
    15:00 -2°C° 0 mm 8 mps 767 mmHg 79%
    16:00 -2°C° 0 mm 8 mps 767 mmHg 80%
    17:00 -1°C° 0 mm 8 mps 767 mmHg 82%
    18:00 -1°C° 0 mm 8 mps 767 mmHg 83%
    19:00 -1°C° 0 mm 8 mps 766 mmHg 83%
    20:00 0°C° 0 mm 8 mps 766 mmHg 84%
    21:00 0°C° 0 mm 8 mps 765 mmHg 86%
    22:00 0°C° 0 mm 8 mps 765 mmHg 87%
    23:00 0°C° 0 mm 8 mps 764 mmHg 88%

    15 December, Saturday

    Time Temperature Precipitation Wind Pressure Humidity
    00:00 0°C° 0.2 mm 8 mps 763 mmHg 89%
    01:00 0°C° 0.2 mm 8 mps 763 mmHg 89%
    02:00 0°C° 0.2 mm 7 mps 762 mmHg 89%
    03:00 0°C° 0.4 mm 7 mps 761 mmHg 91%
    04:00 0°C° 0.4 mm 7 mps 760 mmHg 93%
    05:00 +2°C° 0.4 mm 6 mps 759 mmHg 94%
    06:00 +2°C° 0 mm 7 mps 759 mmHg 94%
    07:00 +2°C° 0 mm 7 mps 758 mmHg 94%
    08:00 +2°C° 0 mm 7 mps 758 mmHg 94%
    09:00 +1°C° 0 mm 8 mps 758 mmHg 90%
    10:00 +1°C° 0 mm 8 mps 758 mmHg 87%
    11:00 +1°C° 0 mm 8 mps 758 mmHg 84%
    12:00 +1°C° 0 mm 8 mps 758 mmHg 81%
    13:00 +1°C° 0 mm 8 mps 758 mmHg 78%
    14:00 +1°C° 0 mm 8 mps 758 mmHg 75%
    15:00 +1°C° 0 mm 8 mps 758 mmHg 76%
    16:00 0°C° 0 mm 8 mps 759 mmHg 76%
    17:00 -1°C° 0 mm 7 mps 759 mmHg 77%
    18:00 -1°C° 0 mm 7 mps 760 mmHg 75%
    19:00 -1°C° 0 mm 8 mps 761 mmHg 74%
    20:00 -1°C° 0 mm 8 mps 761 mmHg 73%
    21:00 -2°C° 0 mm 7 mps 761 mmHg 73%
    22:00 -2°C° 0 mm 7 mps 762 mmHg 73%
    23:00 -2°C° 0 mm 7 mps 762 mmHg 73%

    16 December, Sunday

    Time Temperature Precipitation Wind Pressure Humidity
    00:00 -2°C° 0 mm 7 mps 762 mmHg 74%
    01:00 -2°C° 0 mm 7 mps 762 mmHg 74%
    02:00 -2°C° 0 mm 7 mps 762 mmHg 75%
    03:00 -3°C° 0 mm 7 mps 763 mmHg 74%
    04:00 -3°C° 0 mm 6 mps 763 mmHg 74%
    05:00 -3°C° 0 mm 6 mps 763 mmHg 74%
    06:00 -3°C° 0 mm 6 mps 764 mmHg 74%
    07:00 -2°C° 0 mm 5 mps 764 mmHg 73%
    08:00 -2°C° 0 mm 5 mps 765 mmHg 73%
    09:00 -2°C° 0 mm 5 mps 765 mmHg 71%
    10:00 -1°C° 0 mm 4 mps 765 mmHg 69%
    11:00 -1°C° 0 mm 4 mps 765 mmHg 67%
    12:00 -1°C° 0 mm 4 mps 765 mmHg 66%
    13:00 0°C° 0 mm 3 mps 764 mmHg 66%
    14:00 0°C° 0 mm 3 mps 764 mmHg 66%
    15:00 0°C° 0 mm 3 mps 764 mmHg 69%
    16:00 -2°C° 0 mm 4 mps 764 mmHg 71%
    17:00 -2°C° 0 mm 4 mps 765 mmHg 74%
    18:00 -1°C° 0 mm 3 mps 765 mmHg 74%
    19:00 -1°C° 0 mm 3 mps 765 mmHg 75%
    20:00 -1°C° 0 mm 2 mps 765 mmHg 75%
    21:00 -1°C° 0 mm 2 mps 765 mmHg 76%
    22:00 0°C° 0 mm 1 mps 765 mmHg 76%
    23:00 0°C° 0 mm 1 mps 765 mmHg 77%

    17 December, Monday

    Time Temperature Precipitation Wind Pressure Humidity
    00:00 -2°C° 0 mm 2 mps 764 mmHg 77%
    01:00 -2°C° 0 mm 3 mps 763 mmHg 78%
    02:00 -2°C° 0 mm 3 mps 763 mmHg 78%
    03:00 -3°C° 0 mm 4 mps 762 mmHg 79%
    04:00 -3°C° 0 mm 4 mps 762 mmHg 79%
    05:00 -3°C° 0 mm 4 mps 761 mmHg 79%
    06:00 -4°C° 0 mm 5 mps 761 mmHg 79%
    07:00 -4°C° 0 mm 5 mps 760 mmHg 79%
    08:00 -4°C° 0 mm 5 mps 760 mmHg 79%
    09:00 -2°C° 0 mm 5 mps 759 mmHg 77%
    10:00 -3°C° 0 mm 6 mps 759 mmHg 75%
    11:00 -2°C° 0 mm 6 mps 759 mmHg 73%
    12:00 -2°C° 0 mm 6 mps 758 mmHg 73%
    13:00 -2°C° 0 mm 6 mps 757 mmHg 74%
    14:00 -2°C° 0 mm 6 mps 756 mmHg 75%
    15:00 -2°C° 0 mm 6 mps 755 mmHg 77%
    16:00 -2°C° 0 mm 7 mps 755 mmHg 78%
    17:00 -2°C° 0 mm 7 mps 754 mmHg 80%
    18:00 -2°C° 0.3 mm 8 mps 753 mmHg 81%
    19:00 -2°C° 0.3 mm 8 mps 752 mmHg 83%
    20:00 -3°C° 0.3 mm 9 mps 752 mmHg 84%
    21:00 -3°C° 1.1 mm 9 mps 751 mmHg 86%
    22:00 -3°C° 1.1 mm 9 mps 749 mmHg 88%
    23:00 -3°C° 1.1 mm 9 mps 748 mmHg 90%
    Show more